Simultaneous Nadir Overpasses (SNOs) Predictions

Prediction of SNOs between FY3D and TERRA Satellite Orbit:

Table of predicted SNOs for the next 14.0 days since TLE Epoch: 12/28/2019
Index Date (FY3D) Time (FY3D) Lat,Lon (FY3D) SZA (FY3D ) Date (TERRA) Time (TERRA) Lat,Lon (TERRA) SZA (TERRA ) Distance(km) Time Diff (sec)
1 12/29/2019 10:39:24 -68.81,-160.79 88.08 12/29/2019 10:39:53 -68.80,-160.75 88.09 1.66 29
2 12/29/2019 11:30:07 68.63, 6.75 91.75 12/29/2019 11:29:21 68.64, 6.70 91.76 2.51 46
3 01/01/2020 02:55:48 -68.80, -44.88 88.26 01/01/2020 02:56:21 -68.79, -44.89 88.28 1.31 33
4 01/01/2020 03:46:32 68.68, 122.59 91.62 01/01/2020 03:45:48 68.68, 122.63 91.62 1.70 44
5 01/03/2020 19:12:13 -68.79, 71.03 88.50 01/03/2020 19:12:50 -68.77, 70.98 88.52 3.11 37
6 01/03/2020 20:02:57 68.67,-121.50 91.38 01/03/2020 20:02:17 68.67,-121.51 91.37 0.71 40
7 01/06/2020 11:28:38 -68.78,-173.06 88.79 01/06/2020 11:29:18 -68.81,-173.10 88.77 2.88 40
8 01/06/2020 12:19:22 68.66, -5.59 91.08 01/06/2020 12:18:46 68.64, -5.66 91.06 3.60 36
9 01/09/2020 03:45:04 -68.83, -57.23 89.08 01/09/2020 03:45:46 -68.84, -57.18 89.08 2.09 42
10 01/09/2020 04:35:47 68.66, 110.31 90.74 01/09/2020 04:35:14 68.67, 110.26 90.75 2.43 33




NCC Satellite Simultaneous Nadir Overpasses (SNOs) Prediction Service
